DW7040 Weather Reports


Display with metric or nautical units.
time (UTC)temp
F
wind
direction
speed
MPH
gust
MPH
rain 1hr
in
rain 24hr
in
rain mn
in
humidity
%
barometer
mb
20260506154522 0 197 5.0 7.0 0.00 0.00 0.00 1004.9
20260506153017 0 198 4.0 7.0 0.00 0.00 0.00 1004.9
20260506151513 0 197 5.0 9.0 0.00 0.00 0.00 1004.9
20260506150009 0 197 4.0 8.0 0.00 0.00 0.00 1005.0
20260506144555 0 197 5.0 9.0 0.00 0.00 0.00 1005.0
20260506143034 0 197 7.0 10.0 0.00 0.00 0.00 1005.0
20260506141526 0 197 4.0 9.0 0.00 0.00 0.00 1005.0
20260506140022 0 198 7.0 10.0 0.00 0.00 0.00 1005.1
20260506134534 0 197 5.0 12.0 0.00 0.00 0.00 1005.1
20260506133025 0 197 9.0 14.0 0.00 0.00 0.00 1005.2
20260506131532 0 198 8.0 14.0 0.00 0.00 0.00 1005.2
20260506130017 0 197 9.0 13.0 0.00 0.00 0.00 1005.2
20260506124555 0 198 9.0 14.0 0.00 0.00 0.00 1005.1
20260506123050 0 197 8.0 13.0 0.00 0.00 0.00 1005.2
20260506121535 0 198 11.0 16.0 0.00 0.00 0.00 1005.1
20260506120033 0 198 9.0 16.0 0.00 0.00 0.00 1005.2
20260506114524 0 197 8.0 16.0 0.00 0.00 0.00 1005.2
20260506113020 0 197 8.0 15.0 0.00 0.00 0.00 1005.3
20260506111515 0 196 7.0 20.0 0.00 0.00 0.00 1005.4
20260506110011 0 196 9.0 16.0 0.00 0.00 0.00 1005.4
20260506104507 0 196 11.0 16.0 0.00 0.00 0.00 1005.5
20260506103002 0 197 12.0 16.0 0.00 0.00 0.00 1005.6
20260506101557 0 197 9.0 15.0 0.00 0.00 0.00 1005.6
20260506094544 0 197 9.0 16.0 0.00 0.00 0.00 1005.7
20260506093037 0 197 11.0 16.0 0.00 0.00 0.00 1005.8
20260506091533 0 197 13.0 17.0 0.00 0.00 0.00 1005.7
20260506090037 0 198 9.0 15.0 0.00 0.00 0.00 1005.7
20260506084523 0 197 9.0 11.0 0.00 0.00 0.00 1005.7
20260506083028 0 197 2.0 5.0 0.00 0.00 0.00 1005.8
20260506081504 0 196 2.0 4.0 0.00 0.00 0.00 1005.8
20260506073004 0 197 1.0 3.0 0.00 0.00 0.00 1005.7
20260506071559 0 197 1.0 2.0 0.00 0.00 0.00 1005.7
20260506061547 0 197 0.0 2.0 0.00 0.00 0.00 1005.5
20260506044554 0 197 0.0 1.0 0.00 0.00 0.00 1005.2
20260506043048 0 197 0.0 2.0 0.00 0.00 0.00 1005.2
20260506041542 0 197 0.0 2.0 0.00 0.00 0.00 1005.2
20260506040016 0 197 0.0 2.0 0.00 0.00 0.00 1005.3
20260506034613 0 197 1.0 2.0 0.00 0.00 0.00 1005.3
20260506033050 0 197 0.0 2.0 0.00 0.00 0.00 1005.4
20260506031604 0 197 1.0 2.0 0.00 0.00 0.00 1005.3
20260506030048 0 197 1.0 4.0 0.00 0.00 0.00 1005.4
20260506024533 0 197 3.0 6.0 0.00 0.00 0.00 1005.5
20260506023008 0 197 1.0 3.0 0.00 0.00 0.00 1005.5
20260506021504 0 197 1.0 3.0 0.00 0.00 0.00 1005.5
20260506020059 0 197 1.0 3.0 0.00 0.00 0.00 1005.5
20260506014548 0 197 0.0 2.0 0.00 0.00 0.00 1005.5
20260506013024 0 197 0.0 2.0 0.00 0.00 0.00 1005.6
20260506011600 0 196 1.0 2.0 0.00 0.00 0.00 1005.6
20260506010015 0 197 0.0 1.0 0.00 0.00 0.00 1005.6
20260506004505 0 196 1.0 2.0 0.00 0.00 0.00 1005.8
20260506003114 0 197 1.0 2.0 0.00 0.00 0.00 1005.8
20260506001541 0 197 1.0 2.0 0.00 0.00 0.00 1005.8
20260506000036 0 197 0.0 1.0 0.00 0.00 0.00 1005.8
20260505234534 0 197 0.0 1.0 0.00 0.00 0.00 1005.9
20260505233027 0 197 0.0 1.0 0.00 0.00 0.00 1005.8
20260505231522 0 197 0.0 0.0 0.00 0.00 0.00 1005.9
20260505230025 0 197 1.0 2.0 0.00 0.00 0.00 1006.0
20260505224514 0 196 0.0 0.0 0.00 0.00 0.00 1006.1
20260505223009 0 196 0.0 0.0 0.00 0.00 0.00 1006.2
20260505221506 0 197 0.0 0.0 0.00 0.00 0.00 1006.2
20260505220002 0 196 0.0 0.0 0.00 0.00 0.00 1006.3
20260505214549 0 197 0.0 0.0 0.00 0.00 0.00 1006.3
20260505213019 0 197 0.0 0.0 0.00 0.00 0.00 1006.4
20260505211505 0 197 0.0 2.0 0.00 0.00 0.00 1006.3
20260505210100 0 197 2.0 2.0 0.00 0.00 0.00 1006.3
20260505204555 0 196 2.0 2.0 0.00 0.00 0.00 1006.3
20260505203051 0 197 1.0 2.0 0.00 0.00 0.00 1006.4
20260505201552 0 197 1.0 2.0 0.00 0.00 0.00 1006.4
20260505200042 0 196 3.0 3.0 0.00 0.00 0.00 1006.3
20260505194538 0 197 1.0 2.0 0.00 0.00 0.00 1006.3
20260505193015 0 197 1.0 3.0 0.00 0.00 0.00 1006.2
20260505191511 0 197 2.0 4.0 0.00 0.00 0.00 1006.0
20260505190057 0 197 1.0 4.0 0.00 0.00 0.00 1005.9
20260505184504 0 195 3.0 7.0 0.00 0.00 0.00 1005.9
20260505183108 0 195 4.0 8.0 0.00 0.00 0.00 1005.9
20260505181539 0 195 7.0 10.0 0.00 0.00 0.00 1005.9
20260505180100 0 195 7.0 12.0 0.00 0.00 0.00 1005.9
20260505174555 0 195 5.0 7.0 0.00 0.00 0.00 1005.9
20260505173054 0 195 3.0 11.0 0.00 0.00 0.00 1006.0
20260505171556 0 195 5.0 10.0 0.00 0.00 0.00 1006.2
20260505170042 0 197 5.0 13.0 0.00 0.00 0.00 1006.2
20260505164521 0 197 6.0 10.0 0.00 0.00 0.00 1006.2
20260505163010 0 197 9.0 13.0 0.00 0.00 0.00 1006.2
20260505161536 0 197 7.0 14.0 0.00 0.00 0.00 1006.2